Time,TemperatureF,DewpointF,PressureIn,WindDirection,WindDirectionDegrees,WindSpeedMPH,WindSpeedGustMPH,Humidity,HourlyPrecipIn,Conditions,Clouds,dailyrainin,SolarRadiationWatts/m^2,SoftwareType,DateUTC
2013-01-07 00:03:00,29.0,25.0,-100.00,NW,318,6.0,16.0,85,0.00,,,0.01,0.000000,,2013-01-07 05:03:00,
2013-01-07 00:33:00,29.0,26.0,-100.00,NNW,328,6.0,13.0,87,0.00,,,0.01,0.000000,,2013-01-07 05:33:00,
2013-01-07 00:43:00,29.0,26.0,-100.00,NNW,328,6.0,13.0,87,0.00,,,0.01,0.000000,,2013-01-07 05:43:00,
2013-01-07 00:53:00,29.0,26.0,-100.00,NNW,328,6.0,13.0,87,0.00,,,0.01,0.000000,,2013-01-07 05:53:00,
2013-01-07 01:02:00,29.0,26.0,-100.00,NNW,328,6.0,13.0,87,0.00,,,0.01,0.000000,,2013-01-07 06:02:00,
2013-01-07 01:32:00,28.0,25.0,-100.00,NNW,341,5.0,11.0,88,0.00,,,0.01,0.000000,,2013-01-07 06:32:00,
2013-01-07 01:42:00,28.0,25.0,-100.00,NNW,341,5.0,11.0,88,0.00,,,0.01,0.000000,,2013-01-07 06:42:00,
2013-01-07 01:52:00,28.0,25.0,-100.00,NNW,341,5.0,11.0,88,0.00,,,0.01,0.000000,,2013-01-07 06:52:00,
2013-01-07 02:02:00,28.0,25.0,-100.00,NNW,341,5.0,11.0,88,0.00,,,0.01,0.000000,,2013-01-07 07:02:00,
2013-01-07 02:33:00,26.0,24.0,-100.00,NNW,329,6.0,8.0,92,0.00,,,0.01,0.000000,,2013-01-07 07:33:00,
2013-01-07 02:43:00,26.0,24.0,-100.00,NNW,329,6.0,8.0,92,0.00,,,0.01,0.000000,,2013-01-07 07:43:00,
2013-01-07 02:53:00,26.0,24.0,-100.00,NNW,329,6.0,8.0,92,0.00,,,0.01,0.000000,,2013-01-07 07:53:00,
2013-01-07 03:03:00,26.0,24.0,-100.00,NNW,329,6.0,8.0,92,0.00,,,0.01,0.000000,,2013-01-07 08:03:00,
2013-01-07 03:33:00,26.0,24.0,-100.00,NNW,337,5.0,8.0,93,0.00,,,0.00,0.000000,,2013-01-07 08:33:00,
2013-01-07 03:43:00,26.0,24.0,-100.00,NNW,337,5.0,8.0,93,0.00,,,0.00,0.000000,,2013-01-07 08:43:00,
2013-01-07 03:53:00,26.0,24.0,-100.00,NNW,337,5.0,8.0,93,0.00,,,0.00,0.000000,,2013-01-07 08:53:00,
2013-01-07 04:02:00,26.0,24.0,-100.00,NNW,337,5.0,8.0,93,0.00,,,0.00,0.000000,,2013-01-07 09:02:00,
2013-01-07 04:32:00,24.0,22.0,-100.00,West,279,1.0,6.0,90,0.00,,,0.00,0.000000,,2013-01-07 09:32:00,
2013-01-07 04:42:00,24.0,22.0,-100.00,West,279,1.0,6.0,90,0.00,,,0.00,0.000000,,2013-01-07 09:42:00,
2013-01-07 04:53:00,24.0,22.0,-100.00,West,279,1.0,6.0,90,0.00,,,0.00,0.000000,,2013-01-07 09:53:00,
2013-01-07 05:02:00,24.0,22.0,-100.00,West,279,1.0,6.0,90,0.00,,,0.00,0.000000,,2013-01-07 10:02:00,
2013-01-07 05:33:00,24.0,22.0,-100.00,SW,229,0.0,4.0,92,0.00,,,0.00,0.000000,,2013-01-07 10:33:00,
2013-01-07 05:43:00,24.0,22.0,-100.00,SW,229,0.0,4.0,92,0.00,,,0.00,0.000000,,2013-01-07 10:43:00,
2013-01-07 05:53:00,24.0,22.0,-100.00,SW,229,0.0,4.0,92,0.00,,,0.00,0.000000,,2013-01-07 10:53:00,
2013-01-07 06:02:00,24.0,22.0,-100.00,SW,229,0.0,4.0,92,0.00,,,0.00,0.000000,,2013-01-07 11:02:00,
2013-01-07 06:33:00,25.0,22.0,-100.00,North,349,4.0,5.0,87,0.00,,,0.00,0.000000,,2013-01-07 11:33:00,
2013-01-07 06:43:00,25.0,22.0,-100.00,North,349,4.0,5.0,87,0.00,,,0.00,0.000000,,2013-01-07 11:43:00,
2013-01-07 06:53:00,25.0,22.0,-100.00,North,349,4.0,5.0,87,0.00,,,0.00,0.000000,,2013-01-07 11:53:00,
2013-01-07 07:03:00,25.0,22.0,-100.00,North,349,4.0,5.0,87,0.00,,,0.00,0.000000,,2013-01-07 12:03:00,
2013-01-07 07:33:00,24.0,22.0,-100.00,NNW,340,4.0,7.0,90,0.00,,,0.00,0.000000,,2013-01-07 12:33:00,
2013-01-07 07:43:00,24.0,22.0,-100.00,NNW,340,4.0,7.0,90,0.00,,,0.00,0.000000,,2013-01-07 12:43:00,
2013-01-07 07:53:00,24.0,22.0,-100.00,NNW,340,4.0,7.0,90,0.00,,,0.00,0.000000,,2013-01-07 12:53:00,
2013-01-07 08:03:00,24.0,22.0,-100.00,NNW,340,4.0,7.0,90,0.00,,,0.00,0.000000,,2013-01-07 13:03:00,
2013-01-07 08:33:00,25.0,22.0,-100.00,North,2,5.0,7.0,89,0.00,,,0.00,3.000000,,2013-01-07 13:33:00,
2013-01-07 08:43:00,25.0,22.0,-100.00,North,2,5.0,7.0,89,0.00,,,0.00,3.000000,,2013-01-07 13:43:00,
2013-01-07 08:53:00,25.0,22.0,-100.00,North,2,5.0,7.0,89,0.00,,,0.00,3.000000,,2013-01-07 13:53:00,
2013-01-07 09:03:00,25.0,22.0,-100.00,North,2,5.0,7.0,89,0.00,,,0.00,3.000000,,2013-01-07 14:03:00,
2013-01-07 09:33:00,34.0,16.0,-100.00,WNW,284,2.0,7.0,47,0.00,,,0.00,116.000000,,2013-01-07 14:33:00,
2013-01-07 09:43:00,34.0,16.0,-100.00,WNW,284,2.0,7.0,47,0.00,,,0.00,116.000000,,2013-01-07 14:43:00,
2013-01-07 09:53:00,34.0,16.0,-100.00,WNW,284,2.0,7.0,47,0.00,,,0.00,116.000000,,2013-01-07 14:53:00,
2013-01-07 10:03:00,34.0,16.0,-100.00,WNW,284,2.0,7.0,47,0.00,,,0.00,116.000000,,2013-01-07 15:03:00,
2013-01-07 10:33:00,39.0,22.0,-100.00,SSW,194,3.0,5.0,50,0.00,,,0.00,300.000000,,2013-01-07 15:33:00,
2013-01-07 10:43:00,39.0,22.0,-100.00,SSW,194,3.0,5.0,50,0.00,,,0.00,300.000000,,2013-01-07 15:43:00,
2013-01-07 10:53:00,39.0,22.0,-100.00,SSW,194,3.0,5.0,50,0.00,,,0.00,300.000000,,2013-01-07 15:53:00,
2013-01-07 11:03:00,39.0,22.0,-100.00,SSW,194,3.0,5.0,50,0.00,,,0.00,300.000000,,2013-01-07 16:03:00,
2013-01-07 11:33:00,45.0,18.0,-100.00,SSW,196,5.0,7.0,34,0.00,,,0.00,462.000000,,2013-01-07 16:33:00,
2013-01-07 11:43:00,45.0,18.0,-100.00,SSW,196,5.0,7.0,34,0.00,,,0.00,462.000000,,2013-01-07 16:43:00,
2013-01-07 11:53:00,45.0,18.0,-100.00,SSW,196,5.0,7.0,34,0.00,,,0.00,462.000000,,2013-01-07 16:53:00,
2013-01-07 12:03:00,45.0,18.0,-100.00,SSW,196,5.0,7.0,34,0.00,,,0.00,462.000000,,2013-01-07 17:03:00,
2013-01-07 12:33:00,48.0,20.0,-100.00,South,184,5.0,10.0,32,0.00,,,0.00,577.000000,,2013-01-07 17:33:00,
2013-01-07 12:43:00,48.0,20.0,-100.00,South,184,5.0,10.0,32,0.00,,,0.00,577.000000,,2013-01-07 17:43:00,
2013-01-07 12:53:00,48.0,20.0,-100.00,South,184,5.0,10.0,32,0.00,,,0.00,577.000000,,2013-01-07 17:53:00,
2013-01-07 13:03:00,48.0,20.0,-100.00,South,184,5.0,10.0,32,0.00,,,0.00,577.000000,,2013-01-07 18:03:00,
2013-01-07 13:33:00,49.0,16.0,-100.00,SSE,168,5.0,11.0,27,0.00,,,0.00,630.000000,,2013-01-07 18:33:00,
2013-01-07 13:43:00,49.0,16.0,-100.00,SSE,168,5.0,11.0,27,0.00,,,0.00,630.000000,,2013-01-07 18:43:00,
2013-01-07 13:53:00,49.0,16.0,-100.00,SSE,168,5.0,11.0,27,0.00,,,0.00,630.000000,,2013-01-07 18:53:00,
2013-01-07 14:03:00,49.0,16.0,-100.00,SSE,168,5.0,11.0,27,0.00,,,0.00,630.000000,,2013-01-07 19:03:00,
2013-01-07 14:33:00,50.0,16.0,-100.00,South,191,6.0,11.0,26,0.00,,,0.00,614.000000,,2013-01-07 19:33:00,
2013-01-07 14:43:00,50.0,16.0,-100.00,South,191,6.0,11.0,26,0.00,,,0.00,614.000000,,2013-01-07 19:43:00,
2013-01-07 14:53:00,50.0,16.0,-100.00,South,191,6.0,11.0,26,0.00,,,0.00,614.000000,,2013-01-07 19:53:00,
2013-01-07 15:03:00,50.0,16.0,-100.00,South,191,6.0,11.0,26,0.00,,,0.00,614.000000,,2013-01-07 20:03:00,
2013-01-07 15:33:00,48.0,16.0,-100.00,SSE,153,5.0,10.0,27,0.00,,,0.00,524.000000,,2013-01-07 20:33:00,
2013-01-07 15:43:00,48.0,16.0,-100.00,SSE,153,5.0,10.0,27,0.00,,,0.00,524.000000,,2013-01-07 20:43:00,
2013-01-07 15:53:00,48.0,16.0,-100.00,SSE,153,5.0,10.0,27,0.00,,,0.00,524.000000,,2013-01-07 20:53:00,
2013-01-07 16:03:00,48.0,16.0,-100.00,SSE,153,5.0,10.0,27,0.00,,,0.00,524.000000,,2013-01-07 21:03:00,
2013-01-07 16:33:00,46.0,16.0,-100.00,South,188,5.0,10.0,29,0.00,,,0.00,390.000000,,2013-01-07 21:33:00,
2013-01-07 16:43:00,46.0,16.0,-100.00,South,188,5.0,10.0,29,0.00,,,0.00,390.000000,,2013-01-07 21:43:00,
2013-01-07 16:53:00,46.0,16.0,-100.00,South,188,5.0,10.0,29,0.00,,,0.00,390.000000,,2013-01-07 21:53:00,
2013-01-07 17:03:00,46.0,16.0,-100.00,South,188,5.0,10.0,29,0.00,,,0.00,390.000000,,2013-01-07 22:03:00,
2013-01-07 17:33:00,41.0,18.0,-100.00,South,184,4.0,8.0,39,0.00,,,0.00,93.000000,,2013-01-07 22:33:00,
2013-01-07 17:43:00,41.0,18.0,-100.00,South,184,4.0,8.0,39,0.00,,,0.00,93.000000,,2013-01-07 22:43:00,
2013-01-07 17:53:00,41.0,18.0,-100.00,South,184,4.0,8.0,39,0.00,,,0.00,93.000000,,2013-01-07 22:53:00,
2013-01-07 18:03:00,41.0,18.0,-100.00,South,184,4.0,8.0,39,0.00,,,0.00,93.000000,,2013-01-07 23:03:00,
2013-01-07 18:33:00,35.0,18.0,-100.00,SSE,154,6.0,13.0,50,0.00,,,0.00,10.000000,,2013-01-07 23:33:00,
2013-01-07 18:43:00,35.0,18.0,-100.00,SSE,154,6.0,13.0,50,0.00,,,0.00,10.000000,,2013-01-07 23:43:00,
2013-01-07 18:53:00,35.0,18.0,-100.00,SSE,154,6.0,13.0,50,0.00,,,0.00,10.000000,,2013-01-07 23:53:00,
2013-01-07 19:03:00,35.0,18.0,-100.00,SSE,154,6.0,13.0,50,0.00,,,0.00,10.000000,,2013-01-08 00:03:00,
2013-01-07 19:33:00,35.0,22.0,-100.00,SE,143,7.0,14.0,58,0.00,,,0.00,0.000000,,2013-01-08 00:33:00,
2013-01-07 19:43:00,35.0,22.0,-100.00,SE,143,7.0,14.0,58,0.00,,,0.00,0.000000,,2013-01-08 00:43:00,
2013-01-07 19:53:00,35.0,22.0,-100.00,SE,143,7.0,14.0,58,0.00,,,0.00,0.000000,,2013-01-08 00:53:00,
2013-01-07 20:03:00,35.0,22.0,-100.00,SE,143,7.0,14.0,58,0.00,,,0.00,0.000000,,2013-01-08 01:03:00,
2013-01-07 20:33:00,31.0,20.0,-100.00,SSE,166,5.0,14.0,64,0.00,,,0.00,0.000000,,2013-01-08 01:33:00,
2013-01-07 20:42:00,31.0,20.0,-100.00,SSE,166,5.0,14.0,64,0.00,,,0.00,0.000000,,2013-01-08 01:42:00,
2013-01-07 20:53:00,31.0,20.0,-100.00,SSE,166,5.0,14.0,64,0.00,,,0.00,0.000000,,2013-01-08 01:53:00,
2013-01-07 21:02:00,31.0,20.0,-100.00,SSE,166,5.0,14.0,64,0.00,,,0.00,0.000000,,2013-01-08 02:02:00,
2013-01-07 21:33:00,30.0,21.0,-100.00,South,170,6.0,11.0,69,0.00,,,0.00,0.000000,,2013-01-08 02:33:00,
2013-01-07 21:43:00,30.0,21.0,-100.00,South,170,6.0,11.0,69,0.00,,,0.00,0.000000,,2013-01-08 02:43:00,
2013-01-07 21:53:00,30.0,21.0,-100.00,South,170,6.0,11.0,69,0.00,,,0.00,0.000000,,2013-01-08 02:53:00,
2013-01-07 22:03:00,30.0,21.0,-100.00,South,170,6.0,11.0,69,0.00,,,0.00,0.000000,,2013-01-08 03:03:00,
2013-01-07 22:33:00,30.0,21.0,-100.00,SSE,154,7.0,17.0,70,0.00,,,0.00,0.000000,,2013-01-08 03:33:00,
2013-01-07 22:43:00,30.0,21.0,-100.00,SSE,154,7.0,17.0,70,0.00,,,0.00,0.000000,,2013-01-08 03:43:00,
2013-01-07 22:53:00,30.0,21.0,-100.00,SSE,154,7.0,17.0,70,0.00,,,0.00,0.000000,,2013-01-08 03:53:00,
2013-01-07 23:02:00,30.0,21.0,-100.00,SSE,154,7.0,17.0,70,0.00,,,0.00,0.000000,,2013-01-08 04:02:00,
2013-01-07 23:32:00,29.0,21.0,-100.00,South,177,7.0,12.0,73,0.00,,,0.00,0.000000,,2013-01-08 04:32:00,
2013-01-07 23:43:00,29.0,21.0,-100.00,South,177,7.0,12.0,73,0.00,,,0.00,0.000000,,2013-01-08 04:43:00,
2013-01-07 23:52:00,29.0,21.0,-100.00,South,177,7.0,12.0,73,0.00,,,0.00,0.000000,,2013-01-08 04:52:00,